Regional Weather Roundup
Issued by NWS

Home | Current Version | Previous Version | Text Only | Print | Product List | Glossary On
Versions: 1 2 3 4 5 6 7 8 9 10 11 12 13 14 15 16 17 18 19 20 21 22 23 24 25 26 27 28 29 30 31 32 33 34 35 36 37 38 39 40 41 42 43 44 45 46 47 48 49 50
000
ASUS45 KABQ 310610
RWRNM
NEW MEXICO REGIONAL WEATHER ROUNDUP
NATIONAL WEATHER SERVICE ALBUQUERQUE NM
1200 AM MDT SAT JUL 31 2021

NOTE: "FAIR" MEANS FEW OR NO CLOUDS BELOW 12,000 FEET AGL WITH NO
       SIGNIFICANT WEATHER OR OBSTRUCTIONS TO VISION.

      THIS PRODUCT IS RELEASED AS TWO VERSIONS.  ONE VERSION NEAR
      THE TOP OF THE HOUR CONTAINING PRELIMINARY DATA FROM ALBUQUERQUE
      AND OTHER STATIONS.  A FINAL VERSION WITH ADDITIONAL DATA IS
      ISSUED ABOUT 10 MINUTES AFTER THE HOUR.

NMZ201-203-204-210>218-310700-
NORTHWEST PLATEAU/NORTHCENTRAL MOUNTAINS

CITY           SKY/WX    TMP DP  RH WIND       PRES   REMARKS
FARMINGTON     FAIR      71  53  52 E10       30.27S
6HR MIN TEMP:  71; 6HR MAX TEMP:  88; 6HR PCP: TRACE;

LOS ALAMOS     FAIR      67  44  43 SW8       30.42R
SANTA FE       FAIR      68  50  52 CALM      30.35R
6HR MIN TEMP:  66; 6HR MAX TEMP:  85;

TAOS           FAIR      56  48  74 E5        30.42S
ANGEL FIRE     FAIR      44  42  94 CALM      30.51F

$$
NMZ202-205>209-241-402-403-310700-
WESTCENTRAL MOUNTAINS/SOUTHWEST MOUNTAINS

CITY           SKY/WX    TMP DP  RH WIND       PRES   REMARKS
GALLUP         FAIR      60  57  89 E3        30.36R
6HR MIN TEMP:  60; 6HR MAX TEMP:  83; 6HR PCP:  0.03;

GRANTS         MOCLDY    64  51  62 CALM      30.38S
SILVER CITY    FAIR      65  53  65 NW5       30.28F

$$
NMZ407-409-411-412-310700-
SOUTHERN DESERTS

CITY           SKY/WX    TMP DP  RH WIND       PRES   REMARKS
DEMING         FAIR      73  54  51 NW3       30.22S
6HR MIN TEMP:  72; 6HR MAX TEMP:  91;

LAS CRUCES     MOCLDY    75  50  42 SW5       30.23S
ALAMOGORDO     FAIR      77  52  41 S10       30.19R
T OR C         FAIR      78  51  38 S8        30.22F
6HR MIN TEMP:  78; 6HR MAX TEMP:  90;


$$
NMZ219>223-310700-
CENTRAL VALLEYS/CENTRAL HIGHLANDS

CITY           SKY/WX    TMP DP  RH WIND       PRES   REMARKS
ALBUQUERQUE    FAIR      74  48  39 SE8       30.27S
6HR MIN TEMP:  73; 6HR MAX TEMP:  88;

DOUBLE EAGLE   FAIR      67  47  48 SW7       30.31R
MORIARTY ARPT  FAIR      60  52  74 NE3       30.35S
6HR MIN TEMP:  60; 6HR MAX TEMP:  84;

CLINES CORNERS FAIR      60  47  61 W8        30.41S
6HR MIN TEMP:  60; 6HR MAX TEMP:  78;

BELEN          FAIR      71  46  40 S3        30.26S
6HR MIN TEMP:  69; 6HR MAX TEMP:  84;

SOCORRO        FAIR      73  46  39 SW7       30.23S
6HR MIN TEMP:  73; 6HR MAX TEMP:  86;


$$
NMZ224>226-239-240-310700-
SOUTHCENTRAL MOUNTAINS

CITY           SKY/WX    TMP DP  RH WIND       PRES   REMARKS
RUIDOSO        FAIR      63  50  63 NE3       30.42S

$$
NMZ227>231-310700-
NORTHEAST HIGHLANDS/NORTHEAST PLAINS

CITY           SKY/WX    TMP DP  RH WIND       PRES   REMARKS
LAS VEGAS      FAIR      61  49  64 S10       30.37F
6HR MIN TEMP:  61; 6HR MAX TEMP:  82;

RATON          FAIR      64  44  48 SW7       30.29S
6HR MIN TEMP:  62; 6HR MAX TEMP:  87;

CLAYTON        FAIR      68  54  60 S8        30.20F
6HR MIN TEMP:  68; 6HR MAX TEMP:  89;


$$
NMZ232>237-310700-
EASTCENTRAL PLAINS

CITY           SKY/WX    TMP DP  RH WIND       PRES   REMARKS
SANTA ROSA     FAIR      73  55  53 S7        30.23F
TUCUMCARI      FAIR      78  56  46 S8        30.16S
6HR MIN TEMP:  77; 6HR MAX TEMP:  95;

CANNON AFB     FAIR      69  61  77 S5        30.23S
6HR MIN TEMP:  69; 6HR MAX TEMP:  87;

CLOVIS AIRPORT FAIR      68  61  78 S6        30.24R

$$
NMZ028-029-033-238-310700-
SOUTHEAST PLAINS

CITY           SKY/WX    TMP DP  RH WIND       PRES   REMARKS
ROSWELL        FAIR      72  62  71 CALM      30.17F
6HR MIN TEMP:  72; 6HR MAX TEMP:  82;

ARTESIA        FAIR      75  68  78 N5        30.18S
CARLSBAD       FAIR      74  61  63 CALM      30.13S
6HR MIN TEMP:  73; 6HR MAX TEMP:  85; 6HR PCP: TRACE;

HOBBS          FAIR      70  63  78 N7        30.18S


$$



USA.gov is the U.S. government's official web portal to all federal, state and local government web resources and services.